Wind_Speed
24 25 25 25 25 24 24 24 24 23 23 23 24 25 25 25 25 26 26 26 26 26 27 27 27 28 29 31 31 32 33 34 35 35 35 35 35 35 36 36 35 35 36 36 36 36 35 34 32 30 27 25 24 23 23 23 23 24 24 23 23 23 23 24 24 24 24 24 24
25 25 25 25 25 25 25 25 25 25 24 25 25 25 26 26 25 26 26 26 27 27 28 29 29 30 31 32 32 33 33 34 34 34 35 35 35 35 35 35 35 35 36 36 36 36 35 34 32 29 27 25 24 23 23 23 23 23 24 24 24 23 23 23 24 24 24 25 25
25 25 25 25 26 26 26 25 25 26 27 27 26 26 26 26 26 26 26 27 28 28 28 29 29 30 31 33 33 33 33 33 34 34 35 35 35 35 35 35 35 35 35 35 35 35 35 34 33 30 27 25 24 24 24 23 23 23 23 24 23 22 22 22 22 23 23 23 23
25 25 25 26 26 26 26 26 26 27 27 27 27 26 26 26 26 26 27 28 28 29 28 29 30 31 32 33 33 33 33 33 33 34 34 34 34 34 35 35 35 35 35 35 35 35 35 35 33 30 28 26 26 25 25 24 24 23 23 23 22 22 22 22 22 22 22 22 22
25 25 25 26 26 26 26 27 27 28 28 27 26 26 26 27 26 27 27 28 28 29 30 31 31 32 32 32 33 33 34 34 33 33 33 33 34 35 35 35 34 34 35 35 35 35 35 35 33 30 28 27 26 25 25 25 25 25 24 23 23 22 22 22 22 22 22 22 22
26 26 26 26 27 27 27 27 27 28 28 27 27 28 28 28 28 28 28 29 30 31 32 32 31 31 31 31 32 33 33 34 34 34 33 34 34 35 35 34 34 34 35 35 35 35 35 34 31 29 27 26 26 26 27 25 25 25 25 23 23 22 22 22 22 22 22 22 22
26 26 27 27 27 27 28 28 28 28 28 28 28 28 29 29 30 30 31 31 31 31 30 29 29 29 30 31 32 33 34 34 35 35 34 34 35 34 34 34 34 34 34 34 34 34 33 32 29 27 26 25 25 25 26 25 25 25 24 24 23 22 22 22 22 22 22 23 23
26 27 27 28 28 28 28 29 29 29 29 28 28 29 30 31 31 31 31 31 30 30 29 28 29 30 31 32 33 34 34 34 35 34 34 34 34 34 34 34 33 33 33 32 32 32 31 31 28 27 26 26 25 25 25 25 25 25 25 25 24 23 23 23 23 23 23 24 25
27 28 28 28 29 29 29 29 29 29 29 29 29 30 30 30 30 30 30 30 29 29 28 29 30 31 32 32 33 33 34 33 34 34 33 33 33 33 33 32 32 32 32 31 31 31 30 30 28 27 27 25 25 26 26 26 27 27 26 26 26 25 25 25 25 25 25 25 26
28 28 29 29 29 30 30 30 30 30 30 30 30 30 30 30 30 30 29 29 29 29 29 30 30 31 32 32 32 32 32 32 32 33 33 33 33 33 33 32 32 32 32 32 31 31 30 30 29 29 29 28 28 28 28 28 28 28 28 27 27 27 27 26 25 25 26 26 26
28 29 29 29 30 30 30 30 30 30 29 30 30 30 30 30 30 30 29 29 29 30 30 30 31 31 31 31 31 31 32 32 32 32 33 33 33 33 33 32 32 33 33 32 31 30 29 28 27 28 29 29 29 29 29 28 28 28 28 28 27 27 27 27 26 26 26 26 26
29 29 30 30 30 30 30 30 30 30 29 29 29 29 29 29 29 29 29 29 29 30 30 30 30 30 31 31 30 30 31 31 32 32 32 33 33 33 33 33 33 33 33 33 32 30 28 27 27 28 29 30 28 28 27 27 27 27 27 28 28 27 27 28 27 27 26 26 26
29 30 30 30 30 30 30 30 29 29 28 28 29 29 29 29 29 29 28 29 29 29 29 29 29 29 29 30 30 30 31 31 32 32 32 33 33 33 33 33 33 33 33 32 31 30 29 28 29 30 31 31 30 29 28 28 28 28 28 28 28 27 28 28 28 27 27 26 26
29 30 30 30 30 30 29 29 28 28 27 28 28 29 29 29 28 28 27 28 28 28 29 29 29 28 28 29 31 31 31 31 31 32 33 33 33 33 33 32 32 32 32 31 31 30 29 29 29 29 30 31 31 30 30 29 29 28 28 28 27 27 28 28 28 28 27 27 27
30 30 30 30 30 29 29 28 28 27 27 27 28 29 29 29 28 27 27 28 28 28 28 28 29 29 30 30 31 31 31 31 31 31 32 32 32 33 32 32 32 32 32 31 31 31 30 30 29 29 29 30 31 31 30 30 30 29 29 29 29 29 28 28 28 28 27 27 26
30 30 30 29 29 29 29 28 27 27 27 28 29 29 29 29 28 27 27 28 28 28 28 29 30 30 31 31 30 30 30 30 30 30 30 31 32 32 32 33 33 33 32 32 32 32 31 31 30 29 29 30 30 31 31 30 30 29 30 30 30 30 30 30 29 29 28 27 27
29 30 29 29 29 29 29 28 28 28 28 29 30 30 30 29 28 28 28 28 29 29 30 31 30 31 31 31 30 29 29 29 30 30 30 31 32 33 33 34 33 33 33 33 32 32 32 32 31 30 30 30 31 31 31 31 30 30 30 30 30 30 31 31 30 30 29 29 28
29 29 29 29 29 29 29 29 30 30 30 31 31 31 30 30 30 30 30 30 30 31 32 32 31 30 30 30 30 29 29 29 30 30 31 32 33 33 34 34 34 34 33 33 33 33 33 33 32 32 31 31 31 31 31 31 31 31 31 31 31 31 31 31 31 30 30 29 29
29 29 29 29 29 30 30 30 31 31 31 31 31 31 32 32 32 32 32 32 32 32 32 32 31 31 30 30 31 30 30 30 31 32 32 33 33 34 34 35 35 34 34 34 34 34 34 33 33 32 32 31 31 31 31 32 31 31 31 31 32 32 31 31 30 30 30 30 30
29 29 30 30 30 30 31 31 32 32 32 32 32 32 33 33 33 33 33 33 33 32 32 31 31 31 31 31 31 32 31 31 31 32 33 33 33 34 34 34 35 35 35 34 34 34 34 33 33 32 32 32 32 32 32 32 32 32 31 31 31 31 31 31 30 30 30 31 31
30 30 30 31 31 31 32 32 32 33 33 33 33 34 34 34 34 33 34 34 33 33 32 31 31 31 31 31 32 32 32 32 32 32 33 33 33 33 34 35 35 35 35 35 34 34 33 33 33 32 32 31 32 32 32 31 31 31 31 30 31 31 31 31 30 30 30 31 31
31 31 31 32 32 32 32 33 33 33 34 34 34 34 34 34 34 34 34 34 34 33 32 32 31 31 31 32 32 32 32 32 32 32 32 32 32 33 33 33 34 34 35 35 35 34 34 33 33 33 32 32 32 32 32 31 31 31 31 31 32 32 32 32 31 31 31 31 31
32 32 32 32 32 33 33 33 34 34 34 35 35 35 35 35 35 35 35 34 34 33 33 32 32 32 32 32 32 32 32 32 32 32 32 32 32 32 33 33 33 33 34 34 34 33 33 32 32 32 31 31 31 31 32 32 32 31 31 32 32 33 33 33 32 32 32 32 32
32 33 33 32 33 33 34 34 34 34 34 35 35 35 35 35 35 35 35 34 34 34 33 33 33 32 32 32 32 32 32 32 32 32 32 32 32 32 32 33 33 33 33 33 32 32 31 31 30 30 30 30 29 29 30 31 31 31 31 32 32 33 33 33 33 33 32 33 32
33 33 33 33 33 34 34 34 34 34 35 35 35 35 35 35 36 35 35 35 35 34 34 34 34 33 33 32 32 31 31 30 30 30 31 32 33 33 33 33 33 32 32 32 32 32 32 32 31 31 31 31 30 30 31 31 30 30 30 30 30 30 31 31 32 32 32 32 31
33 33 33 34 34 34 34 34 34 35 35 35 35 35 35 35 36 35 35 35 35 35 35 34 34 33 32 32 31 31 30 30 30 30 30 31 33 34 34 33 32 32 32 33 33 33 34 34 34 34 33 33 32 31 30 29 29 29 29 29 28 28 28 28 28 28 28 28 29
33 33 33 34 34 34 34 35 35 35 36 36 36 35 35 35 35 35 35 35 35 35 35 34 34 33 32 31 31 30 30 30 30 31 31 32 33 34 34 33 33 32 32 33 34 35 35 35 35 35 35 35 34 32 31 29 29 29 29 29 29 29 29 29 29 29 29 28 29
33 33 33 33 34 34 35 35 35 35 35 36 36 35 35 36 36 36 35 36 36 35 35 34 33 32 31 30 30 30 31 31 32 32 32 32 33 34 34 34 34 34 35 35 36 36 36 36 36 36 36 36 35 33 32 30 30 30 30 30 30 30 30 30 29 29 29 30 31
33 33 33 33 34 34 35 35 35 35 35 35 35 35 36 36 36 36 36 36 35 35 34 33 33 32 31 31 31 32 32 32 33 32 32 33 33 34 35 35 35 36 36 37 37 37 37 37 37 37 37 36 35 33 32 30 29 29 29 28 28 28 28 28 28 28 29 32 34
32 33 33 33 33 34 34 35 35 35 35 35 35 36 36 36 36 36 36 35 35 35 34 34 33 32 32 33 32 32 32 33 33 32 32 33 34 34 34 35 35 36 37 37 37 38 38 38 38 37 37 36 35 34 32 30 29 29 28 27 27 27 27 27 28 30 30 30 29
32 32 33 33 33 33 34 34 35 35 35 35 35 35 36 36 36 36 36 35 35 35 35 35 34 34 34 34 33 33 33 33 33 33 33 33 34 35 36 36 36 37 37 37 37 38 38 38 38 37 37 36 35 33 32 31 30 29 28 27 27 26 26 26 27 28 28 27 26
32 32 32 32 33 33 34 34 34 35 35 35 35 36 36 36 36 36 36 35 35 34 34 34 34 34 34 34 33 32 32 32 33 33 33 33 33 35 37 37 37 37 37 37 37 37 37 38 37 37 36 36 35 34 33 32 31 30 29 28 28 28 28 28 28 29 30 31 31
32 32 32 32 32 33 34 34 34 35 35 35 35 36 36 36 36 36 36 35 34 34 34 34 33 33 33 33 33 32 33 33 33 34 34 34 33 35 36 37 37 37 36 36 36 37 37 38 37 37 37 36 35 35 34 32 31 29 29 29 28 28 29 29 29 30 30 31 31
32 32 32 32 32 33 34 34 34 35 35 35 36 36 36 36 35 36 36 35 34 33 33 33 33 32 32 32 31 32 33 34 34 34 34 34 34 34 35 35 35 36 36 36 37 37 38 38 38 37 37 37 36 34 33 32 30 29 29 29 30 30 30 31 31 31 32 32 31
32 32 32 32 32 33 34 34 35 35 35 35 36 36 36 36 35 35 35 35 35 34 33 33 33 32 31 31 31 32 33 35 35 35 35 34 34 34 35 36 36 37 37 37 37 37 37 37 37 37 37 36 35 33 32 31 30 30 30 30 30 31 31 32 32 32 32 32 31
31 31 32 32 33 33 34 35 35 35 35 35 35 36 36 35 35 35 35 34 34 34 33 33 32 32 31 32 33 34 35 35 35 35 35 35 34 34 35 36 37 38 38 38 37 37 37 37 36 37 36 36 34 32 31 29 28 28 29 29 30 31 31 31 31 31 31 31 31
31 31 32 32 33 34 34 35 35 35 35 35 35 35 35 34 34 35 34 33 32 32 32 32 31 31 32 33 34 35 35 34 34 34 34 34 34 34 35 37 38 38 38 37 37 37 36 36 36 36 36 35 33 31 30 28 27 27 27 27 28 29 30 30 30 30 30 30 29
32 32 32 33 33 34 34 34 34 34 34 35 35 35 35 34 33 34 34 32 30 30 31 32 32 32 33 34 35 36 36 35 33 32 32 33 34 34 35 36 38 38 38 37 36 36 36 36 37 36 36 34 32 31 30 27 26 25 25 26 26 27 28 28 28 28 28 28 28
32 32 32 33 33 34 34 34 34 34 34 34 34 35 35 34 33 33 32 30 29 29 30 31 33 35 35 36 35 35 36 35 33 32 32 33 34 35 35 35 37 38 38 37 37 36 36 36 37 36 36 35 33 31 28 26 25 25 25 25 25 26 26 26 26 26 26 27 27
33 33 33 33 33 33 34 34 34 34 33 33 33 34 34 34 33 32 31 30 30 29 30 31 34 36 36 36 35 35 34 34 33 33 33 34 35 36 36 36 36 38 38 38 37 37 36 36 36 36 35 34 32 30 27 25 24 23 24 24 24 24 24 25 25 25 25 26 27
33 33 33 33 33 33 33 33 34 34 33 33 33 33 33 33 32 32 31 31 31 31 32 33 34 36 37 37 35 34 33 33 34 34 35 35 36 36 36 36 37 38 39 39 37 37 36 36 36 35 34 33 31 29 26 24 22 22 22 23 23 23 22 22 23 23 23 24 25
Wind_Direction
326 324 322 320 317 314 311 309 308 306 305 304 304 304 303 302 300 299 299 298 297 297 297 298 297 298 299 300 301 302 302 303 303 304 304 304 303 304 304 304 304 302 301 300 298 296 294 292 290 288 287 285 284 282 281 280 279 278 276 273 271 270 268 267 265 264 263 262 262
324 324 322 321 318 316 313 311 310 309 308 306 305 305 304 302 301 300 299 299 298 298 298 298 298 299 300 301 301 302 302 302 302 302 303 302 302 303 303 303 303 302 301 299 298 295 293 291 288 286 285 283 282 280 279 278 278 277 275 273 271 270 268 266 265 264 264 263 263
324 323 323 321 319 318 315 313 311 311 310 309 307 306 304 303 301 300 300 300 300 300 299 299 299 300 300 301 301 301 301 301 302 302 302 302 301 301 301 301 301 301 300 298 296 294 292 290 288 285 283 281 279 278 278 278 277 275 274 273 271 269 268 266 266 265 264 262 261
324 323 322 321 320 318 316 313 312 312 312 311 309 307 305 304 302 301 301 301 302 301 300 300 300 300 300 300 300 301 301 301 302 301 301 301 300 300 300 299 299 298 297 296 294 293 291 289 286 283 281 278 277 276 276 276 276 274 272 271 270 269 267 266 266 266 264 262 260
324 323 322 321 320 319 317 315 314 313 313 311 309 307 306 305 304 304 303 303 302 302 301 301 301 300 300 300 300 300 301 302 302 301 300 300 299 299 299 298 297 296 295 294 293 291 289 287 284 281 279 277 276 275 274 274 274 273 272 271 269 267 267 266 266 265 263 261 259
322 323 323 322 321 320 318 317 316 315 313 311 309 308 307 306 305 305 304 303 303 303 303 302 301 300 300 300 300 301 301 301 301 301 300 299 299 299 298 297 296 295 294 294 292 290 288 286 282 279 277 276 274 274 274 273 272 271 270 269 268 267 267 266 266 265 263 261 260
322 322 322 322 322 320 319 318 317 316 314 312 310 308 307 307 306 306 305 304 304 304 303 302 301 300 300 300 300 300 301 301 301 300 300 299 299 298 298 297 296 295 294 292 291 289 287 284 280 277 275 273 272 272 273 271 270 269 268 268 267 267 266 265 265 265 264 263 262
323 323 323 322 322 321 320 319 318 316 314 312 310 309 309 308 308 307 307 306 305 304 303 302 301 300 300 300 300 300 300 300 300 300 300 299 299 298 298 297 296 295 293 291 289 287 285 282 278 274 272 271 270 270 271 270 269 268 267 267 267 267 266 266 266 265 264 263 263
323 323 323 323 322 321 321 319 318 316 314 311 310 310 310 309 308 307 307 305 304 304 303 302 301 301 301 300 300 300 299 299 300 299 299 299 298 298 297 296 295 294 293 291 289 287 284 281 276 273 271 269 268 269 269 269 270 268 267 267 268 268 267 266 266 265 264 263 262
322 323 323 322 321 321 320 319 317 315 313 312 311 311 310 309 308 307 306 305 304 304 303 302 302 302 301 301 300 300 299 299 298 299 299 298 298 297 296 295 295 294 293 292 290 288 285 281 277 273 271 269 268 269 269 269 269 268 268 268 269 269 269 267 266 264 263 262 261
321 322 321 320 320 320 319 317 316 314 313 312 311 311 310 309 308 308 307 306 305 304 303 303 303 303 302 301 300 300 299 299 298 298 298 298 297 296 295 294 294 293 292 292 290 288 285 281 277 274 272 270 269 269 269 269 268 267 267 268 268 268 268 268 266 265 263 262 262
320 320 319 319 318 318 317 315 314 313 312 311 310 310 310 309 309 308 307 306 305 304 304 304 303 303 302 301 300 300 300 299 299 298 297 296 295 295 294 293 293 292 292 292 290 288 285 281 278 275 273 271 270 268 268 268 268 268 268 268 268 268 268 268 267 266 264 262 261
319 318 317 317 317 316 315 313 313 311 310 310 310 310 309 309 308 308 307 306 305 304 304 304 303 303 302 301 300 300 300 300 299 298 297 295 294 294 293 293 293 292 292 291 290 288 285 281 278 276 274 272 271 269 268 268 269 269 269 269 269 269 268 268 268 267 265 263 261
317 316 315 315 315 314 313 312 311 310 309 309 309 309 309 308 308 308 306 305 304 304 304 303 303 302 301 300 301 301 300 300 298 297 296 294 293 293 292 292 292 292 292 291 290 288 285 282 279 276 274 273 271 270 269 269 269 269 269 270 270 269 269 269 269 268 266 263 261
315 314 314 314 313 313 312 311 310 310 309 309 309 309 309 308 308 307 306 305 304 304 303 303 303 302 301 301 301 301 300 299 298 296 295 294 293 292 292 292 292 292 292 291 290 288 285 283 280 277 274 273 272 270 269 268 268 269 269 270 270 270 270 270 270 269 266 263 262
313 313 313 313 312 312 311 311 310 309 309 308 309 309 309 308 307 307 306 305 304 304 303 302 302 302 302 302 302 301 300 299 298 297 295 294 293 292 292 291 292 292 292 291 290 289 287 284 281 278 275 273 272 271 270 269 269 268 269 269 270 270 271 271 271 270 268 266 264
311 312 312 312 311 311 311 311 310 310 309 309 309 309 308 307 307 306 305 304 304 303 303 302 302 302 303 304 303 302 301 299 298 297 296 295 294 292 292 291 291 291 291 291 290 289 287 285 283 280 277 275 273 272 271 270 269 269 269 269 269 270 271 272 271 270 269 267 265
311 311 312 312 311 311 311 311 310 310 309 309 309 309 308 307 307 306 305 304 304 303 303 303 303 303 303 303 303 302 301 300 299 298 296 295 294 293 292 291 290 290 290 289 288 288 287 286 284 282 279 277 274 272 271 270 269 268 268 269 269 270 270 270 270 269 268 267 265
311 312 312 312 312 312 311 311 310 310 310 310 309 309 308 307 307 306 305 305 304 303 303 303 303 303 303 303 303 302 301 300 299 298 297 295 294 293 292 291 290 289 289 288 287 287 286 285 284 283 280 278 275 273 271 270 269 268 268 268 269 270 269 269 268 267 267 266 265
312 312 312 312 312 311 311 310 310 310 310 309 309 308 308 307 307 306 305 304 304 304 303 303 302 302 302 302 302 302 301 300 299 298 297 296 295 294 292 291 290 289 288 287 286 285 285 285 284 282 281 278 276 274 272 270 269 268 268 268 268 269 269 268 267 267 266 266 265
312 313 312 312 312 311 310 310 310 310 309 309 308 308 307 307 306 305 304 304 304 304 303 302 301 301 301 302 302 302 301 301 299 298 297 296 295 294 293 292 291 289 288 287 285 284 284 284 283 282 280 278 276 274 272 270 269 268 268 268 268 269 269 268 267 266 265 264 264
312 312 312 311 311 310 310 309 309 309 308 308 307 307 307 306 305 305 304 304 304 303 302 301 300 300 300 300 301 301 301 300 299 298 297 296 295 294 293 293 292 290 288 287 286 285 284 283 283 282 280 278 276 274 272 271 269 269 268 268 268 268 269 269 267 266 264 263 262
312 312 311 311 310 310 309 309 309 308 307 307 307 306 306 305 305 304 304 304 303 302 301 300 299 299 299 299 299 300 300 299 298 297 296 295 295 295 294 294 293 291 289 287 286 284 284 283 282 281 280 278 276 274 271 270 269 268 267 267 268 268 268 267 266 265 263 262 260
311 311 310 310 309 309 309 308 308 307 306 306 306 305 305 304 304 304 304 303 302 301 300 299 298 298 298 298 299 299 299 298 298 297 297 296 296 296 295 295 294 292 290 288 286 284 283 283 282 282 281 280 277 274 272 269 267 266 265 265 265 266 266 266 266 264 262 260 259
310 310 309 309 309 308 308 307 306 306 305 305 305 304 303 303 304 304 303 302 301 300 299 298 298 298 298 298 298 298 298 297 297 297 297 297 297 297 296 295 294 292 290 288 287 285 284 284 283 283 283 282 280 278 277 274 269 266 265 264 264 264 264 264 264 263 261 259 257
309 308 308 308 308 308 307 306 305 305 304 304 304 303 303 302 303 303 302 301 300 299 299 298 298 298 298 297 297 296 296 296 296 296 296 297 297 297 296 295 294 292 290 289 287 286 286 285 285 285 285 284 283 282 280 276 274 271 269 267 266 266 266 266 265 264 262 261 260
307 307 307 307 307 306 306 305 305 304 304 304 303 303 302 302 302 302 301 300 299 299 298 298 297 297 297 296 295 295 295 295 296 296 296 296 296 296 296 295 294 292 291 290 288 287 287 286 286 286 286 286 286 284 282 279 277 275 273 272 270 270 269 268 268 268 268 267 266
306 306 306 306 306 305 305 304 304 304 304 304 303 303 303 302 302 301 300 300 299 299 298 298 297 297 296 295 294 294 294 295 295 295 296 295 295 295 294 294 294 293 292 291 290 289 288 288 288 288 288 287 287 285 283 281 279 277 275 273 271 270 268 267 267 268 269 269 269
305 305 306 305 304 304 304 303 303 303 303 304 303 303 303 302 302 301 300 300 299 299 298 298 297 296 295 293 293 293 293 294 294 295 295 295 294 294 294 293 293 293 292 292 291 290 290 289 288 288 287 287 287 286 285 282 280 277 274 272 269 267 265 264 265 266 268 268 266
305 305 305 304 303 303 303 303 303 304 304 304 304 303 303 302 301 301 300 300 299 298 298 297 296 295 294 293 293 293 293 293 294 294 294 294 294 293 293 293 292 292 292 292 292 291 290 289 288 287 287 287 287 286 285 283 280 277 274 271 268 266 265 265 266 266 266 265 265
305 305 304 304 303 302 302 303 304 304 304 304 304 303 302 302 301 300 300 300 299 298 298 297 295 294 293 293 292 292 292 293 293 294 294 294 293 293 293 293 292 292 292 292 292 291 290 289 288 287 287 287 287 287 286 285 282 278 275 272 270 269 269 269 269 269 269 271 276
305 305 304 303 303 302 303 304 304 304 304 304 304 303 302 301 301 300 300 300 299 298 297 297 295 294 294 294 293 292 292 292 294 294 294 293 291 292 293 293 292 292 292 292 292 291 290 289 288 288 288 288 288 288 287 285 283 280 277 274 273 272 272 272 272 271 272 274 277
305 304 304 303 303 303 304 304 305 305 305 304 303 303 302 301 300 300 301 300 299 298 297 297 295 294 294 294 293 293 293 294 294 294 294 293 291 290 291 292 291 292 292 292 292 291 290 289 289 289 289 289 289 288 287 285 283 280 278 276 275 274 274 273 272 271 271 271 272
305 305 305 304 304 305 305 305 305 305 305 304 303 302 302 301 300 300 301 301 300 299 297 296 295 294 293 293 293 293 294 296 296 295 294 292 291 290 289 289 289 291 292 292 292 291 291 290 290 289 289 289 289 288 286 284 282 280 277 276 276 275 274 273 272 271 270 270 270
306 306 306 306 306 306 305 305 305 305 304 304 303 302 302 301 301 300 301 301 301 299 297 296 296 295 294 293 294 294 295 296 295 294 293 292 291 290 289 290 289 290 291 292 291 291 291 290 289 289 289 288 288 286 285 283 280 278 276 276 275 275 274 273 272 271 270 269 269
307 307 307 306 306 306 306 306 305 305 304 303 303 302 302 302 301 301 301 301 301 300 298 297 296 296 295 295 296 296 296 294 294 293 292 292 291 291 290 290 290 290 291 291 290 290 289 289 288 288 288 287 286 285 284 282 279 277 275 274 274 273 273 272 271 271 270 269 268
307 307 307 307 306 306 306 305 305 304 303 303 303 302 302 302 302 302 302 302 301 300 299 298 298 297 297 297 297 296 294 292 292 291 292 293 292 292 291 291 290 290 290 290 289 289 288 288 288 287 287 287 286 285 284 281 278 276 274 273 273 273 273 272 271 270 269 268 267
308 308 308 307 306 306 305 305 304 303 303 303 302 303 303 302 302 302 303 303 301 300 300 300 299 299 298 297 296 295 293 291 290 290 292 293 293 292 291 290 290 290 290 290 289 289 288 287 287 287 287 286 285 285 284 281 278 275 274 274 273 273 273 272 271 269 268 267 267
308 308 307 306 306 305 304 304 303 303 302 302 302 303 303 303 302 302 303 302 301 300 300 300 300 299 299 298 295 293 292 291 291 291 292 293 293 293 291 289 289 289 289 290 290 289 288 287 287 287 287 286 285 284 282 279 276 274 274 273 273 273 273 271 270 268 267 268 269
308 308 307 306 305 304 304 303 303 303 302 302 302 302 303 303 302 302 302 302 301 300 299 299 299 299 300 298 296 294 292 292 292 293 294 293 293 293 292 290 289 288 289 290 290 289 289 288 288 288 288 287 285 284 281 277 274 272 271 271 272 272 272 270 269 267 268 270 272
308 307 306 305 304 304 303 303 302 303 303 302 302 302 302 302 302 303 303 302 301 300 299 299 299 299 299 299 297 294 292 292 294 295 295 294 294 293 292 290 289 288 289 290 290 290 290 289 288 289 288 287 286 283 280 275 272 270 269 270 271 271 270 269 269 270 271 273 275
Height
807 806 805 803 803 801 800 798 797 796 795 794 792 791 789 788 786 784 783 782 781 779 778 776 775 773 772 771 770 769 768 766 765 764 763 762 761 759 758 757 756 755 754 753 752 751 751 750 750 749 748 748 747 746 745 744 744 743 742 742 741 739 738 738 736 735 735 734 733
805 804 803 803 801 800 799 797 796 795 794 793 791 790 788 787 785 783 782 780 779 778 776 775 773 772 771 769 768 768 766 765 763 762 761 760 758 758 757 755 754 753 752 751 750 749 748 748 748 747 746 746 745 744 743 742 742 741 740 739 738 738 737 735 734 733 733 732 731
804 803 802 801 800 799 798 796 795 793 792 791 790 789 787 786 784 782 781 779 778 777 775 773 772 771 769 768 767 766 765 763 762 761 759 758 757 755 754 753 752 751 750 749 748 747 747 746 746 745 744 743 743 742 740 740 740 739 738 737 736 735 734 733 732 731 731 729 729
803 802 801 799 798 797 796 795 793 792 791 790 788 787 786 784 783 781 779 778 776 775 774 772 771 769 768 766 765 764 763 762 760 759 758 756 755 753 753 752 750 749 748 747 746 745 745 744 743 743 742 741 740 739 738 737 737 737 736 735 734 733 732 731 730 729 728 727 727
801 800 799 798 797 796 795 794 793 791 790 788 787 786 784 783 781 780 778 777 775 773 772 771 769 768 766 765 763 762 761 760 758 757 756 754 753 752 750 749 748 747 746 745 744 743 743 742 741 740 739 738 738 736 735 735 734 734 733 732 732 731 730 729 728 727 726 725 724
800 799 798 797 796 795 793 793 791 790 788 787 786 784 783 781 780 778 777 775 773 772 771 769 768 766 764 763 762 760 759 758 757 755 754 752 751 749 748 747 746 745 744 743 742 741 741 740 739 738 737 736 735 733 733 733 732 731 730 729 729 728 728 727 726 725 724 723 722
798 797 796 795 794 793 792 791 790 788 787 786 784 783 781 780 778 777 775 774 772 770 769 768 766 764 763 762 760 759 757 756 754 753 752 750 748 747 746 745 744 743 742 741 740 739 738 738 737 736 734 734 732 731 730 730 729 729 728 727 726 726 725 724 724 723 722 721 720
797 796 795 794 793 792 790 789 788 787 785 784 783 781 779 778 777 775 773 772 771 769 768 766 765 763 762 760 759 757 756 754 753 751 750 748 747 745 744 743 742 741 740 739 738 737 736 736 735 733 732 731 730 728 728 728 727 726 725 724 723 723 723 722 721 721 720 719 718
795 794 793 792 791 790 789 788 787 785 784 782 781 779 778 777 775 773 772 771 769 768 766 765 763 762 760 759 757 755 754 753 751 749 748 746 745 743 742 741 740 738 738 737 736 735 734 733 732 731 729 728 727 726 725 725 724 723 722 722 721 720 720 719 719 718 718 717 716
794 793 792 790 789 788 787 786 785 783 782 780 779 778 776 775 773 772 771 769 767 766 764 763 762 760 758 757 755 754 752 751 749 748 746 744 743 742 740 739 738 737 735 734 734 733 732 730 729 728 726 725 724 723 722 722 721 720 719 719 718 717 717 716 716 716 715 714 713
792 791 790 789 788 787 785 784 783 782 780 779 777 776 774 773 772 770 769 768 766 764 763 761 760 758 757 755 754 752 750 749 748 746 744 743 741 740 738 737 736 734 733 732 731 731 729 728 726 725 723 722 722 721 720 719 718 718 716 716 715 714 714 713 713 713 712 711 711
790 789 788 787 786 785 784 783 781 780 778 777 775 774 773 771 770 768 767 766 764 763 761 759 758 757 755 753 752 750 749 747 746 744 743 741 739 738 736 735 733 732 731 730 729 728 727 725 723 722 721 719 719 718 717 716 715 715 713 713 712 712 711 710 710 710 709 709 708
789 788 787 785 784 783 782 781 779 778 777 775 773 772 771 769 768 767 765 764 762 761 759 758 757 755 753 752 750 748 747 745 744 742 740 739 737 735 734 732 731 730 728 727 726 725 724 722 721 719 718 717 716 715 714 713 713 712 711 710 709 708 708 707 707 707 706 706 705
788 786 785 784 783 782 780 779 778 776 774 773 772 770 769 767 766 765 764 762 760 759 757 756 754 753 752 750 748 747 745 744 742 740 738 737 735 733 732 730 729 728 726 725 724 723 721 720 718 717 715 714 713 712 711 711 710 709 708 707 706 705 704 704 703 703 703 703 702
786 784 783 782 781 780 778 777 776 774 773 771 770 768 767 766 764 763 762 760 758 757 756 754 752 751 750 748 747 745 743 742 740 738 736 734 733 731 730 728 727 725 724 723 721 720 718 717 715 714 713 711 710 709 708 708 707 706 705 704 703 702 702 701 701 700 700 699 699
784 783 782 780 779 778 777 775 774 773 771 769 768 767 765 764 762 761 760 758 757 755 754 752 751 749 747 746 745 743 741 739 738 736 734 732 730 729 727 726 724 723 722 720 719 717 716 714 713 712 710 708 707 706 705 704 703 703 702 701 700 699 699 698 698 697 697 696 696
782 781 780 778 777 776 774 773 772 771 769 767 766 764 763 762 760 759 758 756 755 753 751 750 749 747 745 743 742 741 739 737 736 734 732 730 728 727 725 723 722 721 719 718 716 714 713 711 710 709 708 706 704 703 702 701 700 699 698 698 697 696 696 695 695 694 694 693 693
780 779 778 777 775 774 773 771 770 768 767 765 764 763 761 760 758 757 755 754 753 751 749 747 746 745 744 742 740 739 738 736 733 732 730 728 726 725 723 721 720 718 717 715 714 712 710 708 707 706 705 703 702 700 699 698 697 696 695 694 694 693 692 692 691 691 691 690 689
778 777 776 774 773 772 770 769 768 766 765 763 762 760 759 758 756 755 753 751 750 749 747 745 744 743 741 740 738 737 735 734 732 729 728 726 724 723 721 719 717 716 714 713 711 709 708 706 704 703 702 700 699 698 696 695 694 693 692 691 690 690 689 688 688 688 687 687 686
776 775 774 773 771 770 768 767 766 764 763 761 760 758 757 755 754 753 751 749 748 747 745 743 742 740 739 738 736 734 733 731 729 727 725 724 722 720 718 716 715 713 711 710 708 707 705 703 702 700 699 698 696 694 693 692 691 690 689 688 687 686 686 685 684 684 684 683 683
774 773 772 771 769 768 767 765 764 762 761 759 758 756 754 753 752 750 748 747 745 744 743 741 740 738 736 735 733 732 730 728 727 725 723 721 719 718 716 714 712 710 708 707 705 703 702 701 699 698 696 694 693 691 690 689 688 686 685 685 684 683 682 682 681 681 680 680 679
773 771 770 769 768 766 765 763 762 760 759 757 755 754 752 751 749 748 746 744 743 742 740 739 737 736 734 733 731 729 727 726 724 722 721 719 717 715 713 712 710 708 706 704 702 701 699 698 696 695 693 692 690 688 687 686 685 683 682 681 680 679 679 678 678 677 677 676 676
771 769 768 767 766 764 763 761 760 758 756 755 753 752 750 748 747 745 743 742 741 739 738 736 735 733 732 730 728 727 725 723 721 719 718 716 714 713 711 709 708 705 703 701 699 698 696 695 693 692 690 689 687 685 684 683 682 680 679 678 677 676 675 675 674 673 673 672 672
769 768 766 765 764 762 761 759 758 756 754 753 751 749 748 746 744 743 741 740 738 737 735 733 732 730 729 727 726 724 723 720 718 717 715 713 712 710 708 707 705 703 701 699 697 695 694 692 690 688 687 686 684 682 680 679 678 677 675 674 673 672 671 670 670 669 669 668 668
767 766 764 763 762 760 759 757 755 754 752 750 748 747 745 743 742 740 739 737 735 734 732 731 729 728 726 724 723 721 720 718 716 714 712 710 709 708 706 704 702 700 698 696 694 693 691 690 688 686 684 683 681 679 678 676 675 673 672 671 670 668 667 666 666 665 665 664 664
766 764 763 761 760 758 757 755 753 752 750 748 746 745 743 741 740 738 736 734 733 731 730 728 727 725 723 722 720 718 717 716 714 712 710 708 706 705 703 702 699 698 695 693 692 690 688 687 686 684 682 680 678 677 675 673 672 671 669 668 667 666 664 663 662 662 661 661 661
764 762 761 759 758 756 754 753 751 749 748 746 744 742 740 739 737 736 734 732 730 728 727 726 724 723 721 719 717 716 714 713 711 710 708 706 704 702 700 698 697 695 693 691 689 687 686 684 683 681 680 678 676 674 672 670 669 668 667 665 664 663 662 661 660 659 658 658 658
762 760 759 757 756 754 752 750 749 747 745 743 742 740 738 737 735 733 731 729 728 726 725 723 722 720 718 716 714 713 711 710 708 707 705 703 702 700 698 696 694 692 690 688 686 684 683 681 679 678 677 675 673 671 669 668 666 664 663 662 661 660 659 658 657 656 655 655 654
760 758 757 755 754 752 750 748 747 745 743 741 740 738 736 734 733 731 729 727 725 724 722 721 719 717 715 713 712 710 708 707 706 704 703 701 699 697 695 693 691 689 687 685 683 682 680 678 676 675 674 672 671 668 667 665 663 662 660 659 658 656 655 654 653 653 652 651 650
758 757 755 753 752 750 748 746 744 743 741 739 738 736 734 732 730 728 727 725 723 722 720 718 716 714 713 711 709 708 706 704 703 702 700 698 696 694 692 690 688 686 684 682 681 679 677 675 673 672 670 669 668 666 664 662 660 658 657 655 654 653 652 651 650 649 648 647 646
756 755 753 751 749 748 746 744 743 741 739 737 735 733 731 729 728 726 724 723 721 719 717 716 714 712 710 708 707 705 703 701 700 698 697 695 693 691 688 687 685 683 681 679 678 676 674 672 670 668 667 666 664 663 661 659 657 656 654 652 651 650 649 648 648 647 646 645 644
754 753 751 749 748 745 744 742 740 738 737 735 733 731 729 727 725 723 722 720 718 716 714 713 711 708 707 705 703 702 700 698 697 695 694 692 690 688 685 683 681 679 678 676 674 673 671 669 667 665 664 663 661 660 658 656 654 653 651 649 648 648 647 646 645 644 643 643 642
753 751 749 748 745 743 742 740 738 737 735 733 731 729 727 724 723 721 719 718 716 714 712 710 708 706 704 702 700 699 697 696 694 692 691 689 687 685 682 680 678 676 674 673 672 670 668 666 664 662 661 659 658 657 655 653 651 649 648 647 645 644 644 643 642 641 640 639 639
751 749 747 745 743 742 740 738 736 734 733 730 728 726 724 722 720 718 716 715 713 711 709 707 705 703 702 700 698 696 694 693 691 689 688 686 684 682 679 677 674 673 672 670 668 667 665 663 661 659 658 657 655 653 651 650 648 646 645 643 642 641 640 640 639 638 637 636 636
749 747 745 743 742 740 738 736 734 732 730 728 726 723 722 720 718 716 714 712 710 708 706 704 703 701 699 698 696 694 692 690 688 686 685 683 681 679 676 673 671 669 668 667 665 663 662 660 658 656 655 653 652 650 648 646 645 643 642 640 639 638 637 636 635 635 634 633 632
747 745 743 741 739 738 736 734 732 730 728 726 723 721 719 717 715 713 712 710 708 705 703 701 700 698 696 695 693 692 690 688 685 683 681 680 678 676 673 670 668 666 665 664 662 660 658 657 655 653 652 650 648 647 645 643 642 640 638 637 636 634 633 633 632 631 630 630 629
745 743 742 739 738 735 733 732 730 728 725 723 721 719 717 715 713 711 709 708 705 703 700 699 697 695 694 692 690 688 687 685 683 680 678 677 675 673 670 667 664 663 661 660 658 657 655 653 652 650 649 647 645 643 642 640 638 637 635 634 632 631 630 629 628 628 627 626 626
743 742 740 738 736 733 732 730 728 725 723 721 719 717 715 713 710 708 707 705 703 701 698 696 695 693 691 690 688 685 683 681 680 678 676 674 672 670 668 665 662 659 658 657 655 653 652 650 648 647 646 644 643 641 639 637 635 634 632 631 629 628 627 627 626 624 624 623 622
741 740 738 736 734 732 729 728 725 723 721 719 716 714 712 710 708 706 704 703 701 699 697 694 692 690 689 687 685 682 679 678 677 676 674 672 669 668 665 663 659 656 654 653 652 650 649 647 645 644 643 641 640 638 636 634 632 631 629 628 627 625 624 623 622 622 620 619 619
739 738 736 734 732 730 728 725 723 721 719 717 714 712 710 708 706 704 702 701 699 697 695 693 690 688 686 685 682 679 677 675 673 673 671 669 667 665 663 660 657 654 651 650 649 647 646 644 642 641 639 638 637 635 633 632 630 628 627 625 624 623 621 620 619 619 617 616 616
738 736 734 732 730 728 726 723 721 719 717 715 713 710 708 706 704 702 700 699 697 695 693 690 688 686 684 682 680 677 674 672 670 669 668 667 664 662 660 657 654 651 648 647 645 644 643 641 639 637 636 635 633 632 630 629 627 625 624 622 621 620 619 617 617 616 615 614 612